timestamp,wind_dir_avg,wind_spd_avg,wind_spd_max_dir,wind_spd_gust,battery_voltage,lat,long
2023-04-13 00:04:00+00:00,70.0,5.33,72.0,5.76,12.33,47.59359,-54.27349
2023-04-13 00:14:00+00:00,73.0,4.45,65.0,4.9,12.25,47.59359,-54.27349
2023-04-13 00:24:00+00:00,74.0,2.56,79.0,3.95,12.25,47.59359,-54.27349
2023-04-13 00:34:00+00:00,69.0,2.64,87.0,3.83,12.25,47.59359,-54.27349
2023-04-13 00:44:00+00:00,82.0,2.59,94.0,4.0,12.25,47.59359,-54.27349
2023-04-13 00:54:00+00:00,83.0,4.16,83.0,7.07,12.25,47.59359,-54.27349
2023-04-13 01:04:00+00:00,87.0,3.36,82.0,5.67,12.25,47.59359,-54.27349
2023-04-13 01:14:00+00:00,79.0,3.73,100.0,5.62,12.25,47.59359,-54.27349
2023-04-13 01:24:00+00:00,72.0,4.66,76.0,7.87,12.25,47.59359,-54.27349
2023-04-13 01:34:00+00:00,64.0,4.07,58.0,4.92,12.25,47.59359,-54.27349
2023-04-13 01:44:00+00:00,73.0,6.65,77.0,9.53,12.25,47.59359,-54.27349
2023-04-13 01:54:00+00:00,71.0,8.52,74.0,10.4,12.25,47.59359,-54.27349
2023-04-13 02:04:00+00:00,66.0,7.23,71.0,9.96,12.25,47.59359,-54.27349
2023-04-13 02:14:00+00:00,62.0,5.08,71.0,7.14,12.25,47.59359,-54.27349
2023-04-13 02:24:00+00:00,59.0,5.39,65.0,7.64,12.25,47.59359,-54.27349
2023-04-13 02:34:00+00:00,65.0,9.01,67.0,10.27,12.25,47.59359,-54.27349
2023-04-13 02:44:00+00:00,65.0,8.02,69.0,10.07,12.25,47.59359,-54.27349
2023-04-13 02:54:00+00:00,65.0,7.49,70.0,10.34,12.25,47.59359,-54.27349
2023-04-13 03:04:00+00:00,58.0,5.92,71.0,9.46,12.25,47.59359,-54.27349
2023-04-13 03:14:00+00:00,56.0,5.15,65.0,7.53,12.17,47.59359,-54.27349
2023-04-13 03:24:00+00:00,60.0,5.06,74.0,9.28,12.17,47.59359,-54.27349
2023-04-13 03:34:00+00:00,64.0,8.13,67.0,9.84,12.17,47.59359,-54.27349
2023-04-13 03:44:00+00:00,49.0,6.1,63.0,8.53,12.17,47.59359,-54.27349
2023-04-13 03:54:00+00:00,51.0,5.34,67.0,7.84,12.17,47.59359,-54.27349
2023-04-13 04:04:00+00:00,51.0,6.37,62.0,8.78,12.17,47.59359,-54.27349
2023-04-13 04:14:00+00:00,61.0,8.9,64.0,10.53,12.17,47.59359,-54.27349
2023-04-13 04:24:00+00:00,63.0,9.29,63.0,10.51,12.17,47.59359,-54.27349
2023-04-13 04:34:00+00:00,53.0,8.24,63.0,10.51,12.17,47.59359,-54.27349
2023-04-13 04:44:00+00:00,42.0,7.7,60.0,11.29,12.17,47.59359,-54.27349
2023-04-13 04:54:00+00:00,53.0,10.34,55.0,12.16,12.17,47.59359,-54.27349
2023-04-13 05:04:00+00:00,53.0,11.75,56.0,12.48,12.17,47.59359,-54.27349
2023-04-13 05:14:01+00:00,51.0,9.38,59.0,11.86,12.17,47.59359,-54.27349
2023-04-13 05:24:01+00:00,53.0,10.19,58.0,11.8,12.17,47.59359,-54.27349
2023-04-13 05:34:01+00:00,56.0,11.59,56.0,12.43,12.17,47.59359,-54.27349
2023-04-13 05:44:01+00:00,56.0,10.44,59.0,11.57,12.17,47.59359,-54.27349
2023-04-13 05:54:01+00:00,33.0,7.91,44.0,9.54,12.17,47.59359,-54.27349
2023-04-13 06:04:01+00:00,59.0,11.77,61.0,12.39,12.17,47.59359,-54.27349
2023-04-13 06:14:00+00:00,63.0,10.99,62.0,11.73,12.09,47.59359,-54.27349
2023-04-13 06:24:00+00:00,63.0,10.07,60.0,10.89,12.09,47.59359,-54.27349
2023-04-13 06:34:00+00:00,56.0,7.91,63.0,10.38,12.09,47.59359,-54.27349
2023-04-13 06:44:00+00:00,63.0,9.76,62.0,10.63,12.09,47.59359,-54.27349
2023-04-13 06:54:00+00:00,65.0,8.56,65.0,10.08,12.09,47.59359,-54.27349
2023-04-13 07:04:00+00:00,62.0,9.89,62.0,10.63,12.09,47.59359,-54.27349
2023-04-13 07:14:00+00:00,54.0,9.99,59.0,11.44,12.09,47.59359,-54.27349
2023-04-13 07:24:00+00:00,45.0,7.92,57.0,11.04,12.09,47.59359,-54.27349
2023-04-13 07:34:00+00:00,39.0,8.03,51.0,9.76,12.09,47.59359,-54.27349
2023-04-13 07:44:00+00:00,42.0,8.15,56.0,11.12,12.09,47.59359,-54.27349
2023-04-13 07:54:00+00:00,62.0,10.33,61.0,11.64,12.09,47.59359,-54.27349
2023-04-13 08:04:00+00:00,43.0,7.23,61.0,10.23,12.09,47.59359,-54.27349
2023-04-13 08:14:01+00:00,47.0,7.53,58.0,10.64,12.09,47.59359,-54.27349
2023-04-13 08:24:01+00:00,37.0,6.35,33.0,7.02,12.09,47.59359,-54.27349
2023-04-13 08:34:01+00:00,35.0,6.63,49.0,8.45,12.09,47.59359,-54.27349
2023-04-13 08:44:01+00:00,28.0,5.88,32.0,6.62,12.09,47.59359,-54.27349
2023-04-13 08:54:01+00:00,27.0,6.39,28.0,6.95,12.09,47.59359,-54.27349
2023-04-13 09:04:01+00:00,23.0,4.38,19.0,4.97,12.09,47.59359,-54.27349
2023-04-13 09:14:01+00:00,27.0,5.38,27.0,5.7,12.09,47.59359,-54.27349
2023-04-13 09:24:01+00:00,18.0,4.31,15.0,5.17,12.09,47.59359,-54.27349
2023-04-13 09:34:01+00:00,19.0,6.35,14.0,7.8,12.09,47.59359,-54.27349
2023-04-13 09:44:01+00:00,18.0,8.41,16.0,9.89,12.09,47.59359,-54.27349
2023-04-13 09:54:01+00:00,14.0,8.67,18.0,9.66,12.09,47.59359,-54.27349
2023-04-13 10:04:01+00:00,6.0,6.93,5.0,8.28,12.09,47.59359,-54.27349
2023-04-13 10:14:00+00:00,22.0,8.38,21.0,9.32,12.17,47.59359,-54.27349
2023-04-13 10:24:00+00:00,19.0,10.42,19.0,11.67,12.17,47.59359,-54.27349
2023-04-13 10:34:00+00:00,19.0,9.73,20.0,10.86,12.17,47.59359,-54.27349
2023-04-13 10:44:00+00:00,18.0,8.26,21.0,9.09,12.17,47.59359,-54.27349
2023-04-13 10:54:00+00:00,20.0,7.76,26.0,9.48,12.17,47.59359,-54.27349
2023-04-13 11:04:00+00:00,22.0,7.41,17.0,8.23,12.17,47.59359,-54.27349
2023-04-13 11:14:00+00:00,15.0,7.41,17.0,8.63,12.65,47.59359,-54.27349
2023-04-13 11:24:00+00:00,16.0,9.23,17.0,10.37,12.65,47.59359,-54.27349
2023-04-13 11:34:00+00:00,12.0,6.82,19.0,8.2,12.65,47.59359,-54.27349
2023-04-13 11:44:00+00:00,13.0,7.26,17.0,8.16,12.65,47.59359,-54.27349
2023-04-13 11:54:00+00:00,14.0,7.41,19.0,9.03,12.65,47.59359,-54.27349
2023-04-13 12:04:00+00:00,9.0,8.61,1.0,10.06,12.65,47.59359,-54.27349
2023-04-13 12:14:00+00:00,8.0,8.25,2.0,9.87,12.97,47.59359,-54.27349
2023-04-13 12:24:00+00:00,4.0,8.91,5.0,10.18,12.97,47.59359,-54.27349
2023-04-13 12:34:00+00:00,5.0,10.27,5.0,12.08,12.97,47.59359,-54.27349
2023-04-13 12:44:00+00:00,2.0,9.86,4.0,11.25,12.97,47.59359,-54.27349
2023-04-13 12:54:00+00:00,0.0,9.27,357.0,10.5,12.97,47.59359,-54.27349
2023-04-13 13:04:00+00:00,4.0,9.89,1.0,11.63,12.97,47.59359,-54.27349
2023-04-13 13:14:00+00:00,4.0,9.74,3.0,11.18,13.68,47.59359,-54.27349
2023-04-13 13:24:00+00:00,354.0,9.58,353.0,11.7,13.68,47.59359,-54.27349
2023-04-13 13:34:00+00:00,9.0,8.93,1.0,11.06,13.68,47.59359,-54.27349
2023-04-13 13:44:00+00:00,3.0,10.93,1.0,13.47,13.68,47.59359,-54.27349
2023-04-13 13:54:00+00:00,5.0,11.11,4.0,12.99,13.68,47.59359,-54.27349
2023-04-13 14:04:00+00:00,5.0,10.03,3.0,11.47,13.68,47.59359,-54.27349
2023-04-13 14:14:00+00:00,12.0,9.03,13.0,10.5,13.68,47.59359,-54.27349
2023-04-13 14:24:00+00:00,13.0,10.59,17.0,12.0,13.68,47.59359,-54.27349
2023-04-13 14:34:00+00:00,16.0,8.97,19.0,10.5,13.68,47.59359,-54.27349
2023-04-13 14:44:00+00:00,18.0,8.73,15.0,10.26,13.68,47.59359,-54.27349
2023-04-13 14:54:00+00:00,19.0,8.7,23.0,10.29,13.68,47.59359,-54.27349
2023-04-13 15:04:00+00:00,12.0,8.64,12.0,9.67,13.68,47.59359,-54.27349
2023-04-13 15:14:00+00:00,17.0,9.11,18.0,10.3,13.53,47.59359,-54.27349
2023-04-13 15:24:00+00:00,12.0,8.49,15.0,10.23,13.53,47.59359,-54.27349
2023-04-13 15:34:00+00:00,11.0,8.22,12.0,9.55,13.53,47.59359,-54.27349
2023-04-13 15:44:00+00:00,8.0,8.43,9.0,9.86,13.53,47.59359,-54.27349
2023-04-13 15:54:00+00:00,15.0,9.18,17.0,10.3,13.53,47.59359,-54.27349
2023-04-13 16:04:00+00:00,14.0,7.55,16.0,8.7,13.53,47.59359,-54.27349
2023-04-13 16:14:00+00:00,359.0,8.88,1.0,9.93,13.6,47.59359,-54.27349
2023-04-13 16:24:00+00:00,0.0,8.9,358.0,10.27,13.6,47.59359,-54.27349
2023-04-13 16:34:00+00:00,6.0,5.51,12.0,6.41,13.6,47.59359,-54.27349
2023-04-13 16:44:00+00:00,16.0,6.07,18.0,6.78,13.6,47.59359,-54.27349
2023-04-13 16:54:00+00:00,22.0,5.07,22.0,6.03,13.6,47.59359,-54.27349
2023-04-13 17:04:00+00:00,10.0,4.52,15.0,5.13,13.6,47.59359,-54.27349
2023-04-13 17:14:00+00:00,17.0,3.36,15.0,4.09,13.68,47.59359,-54.27349
2023-04-13 17:24:00+00:00,34.0,3.11,33.0,3.92,13.68,47.59359,-54.27349
2023-04-13 17:34:00+00:00,41.0,2.97,58.0,3.89,13.68,47.59359,-54.27349
2023-04-13 17:44:00+00:00,358.0,5.88,1.0,6.75,13.68,47.59359,-54.27349
2023-04-13 17:54:00+00:00,352.0,7.79,352.0,8.78,13.68,47.59359,-54.27349
2023-04-13 18:04:00+00:00,339.0,7.35,344.0,8.26,13.68,47.59359,-54.27349
2023-04-13 18:14:00+00:00,349.0,8.17,350.0,8.72,13.68,47.59359,-54.27349
2023-04-13 18:24:00+00:00,352.0,9.0,345.0,9.83,13.68,47.59359,-54.27349
2023-04-13 18:34:00+00:00,355.0,8.65,358.0,9.69,13.68,47.59359,-54.27349
2023-04-13 18:44:00+00:00,348.0,8.97,350.0,9.76,13.68,47.59359,-54.27349
2023-04-13 18:54:00+00:00,341.0,6.72,340.0,7.41,13.68,47.59359,-54.27349
2023-04-13 19:04:00+00:00,346.0,7.64,351.0,8.17,13.68,47.59359,-54.27349
2023-04-13 19:14:00+00:00,353.0,7.24,350.0,7.5,13.68,47.59359,-54.27349
2023-04-13 19:24:00+00:00,352.0,8.13,347.0,8.91,13.68,47.59359,-54.27349
2023-04-13 19:34:00+00:00,352.0,7.89,353.0,8.46,13.68,47.59359,-54.27349
2023-04-13 19:44:00+00:00,355.0,7.64,355.0,8.75,13.68,47.59359,-54.27349
2023-04-13 19:54:00+00:00,357.0,5.98,359.0,6.71,13.68,47.59359,-54.27349
2023-04-13 20:04:00+00:00,9.0,4.99,37.0,6.19,13.68,47.59359,-54.27349
2023-04-13 20:14:00+00:00,25.0,4.19,33.0,4.84,13.76,47.59359,-54.27349
2023-04-13 20:24:00+00:00,17.0,4.65,39.0,5.44,13.76,47.59359,-54.27349
2023-04-13 20:34:00+00:00,11.0,4.97,47.0,6.81,13.76,47.59359,-54.27349
2023-04-13 20:44:00+00:00,11.0,4.11,49.0,5.13,13.76,47.59359,-54.27349
2023-04-13 20:54:00+00:00,355.0,5.97,355.0,6.28,13.76,47.59359,-54.27349
2023-04-13 21:04:00+00:00,343.0,4.25,345.0,5.21,13.76,47.59359,-54.27349
2023-04-13 21:14:00+00:00,330.0,7.32,328.0,7.94,13.6,47.59359,-54.27349
2023-04-13 21:24:00+00:00,353.0,6.06,350.0,6.87,13.6,47.59359,-54.27349
2023-04-13 21:34:00+00:00,5.0,4.39,10.0,5.1,13.6,47.59359,-54.27349
2023-04-13 21:44:00+00:00,18.0,3.45,52.0,5.76,13.6,47.59359,-54.27349
2023-04-13 21:54:00+00:00,67.0,5.53,67.0,5.85,13.6,47.59359,-54.27349
2023-04-13 22:04:00+00:00,14.0,1.17,67.0,2.81,13.6,47.59359,-54.27349
2023-04-13 22:14:00+00:00,7.0,1.98,11.0,2.17,13.13,47.59359,-54.27349
2023-04-13 22:24:00+00:00,2.0,2.37,10.0,2.83,13.13,47.59359,-54.27349
2023-04-13 22:34:00+00:00,2.0,2.73,1.0,3.12,13.13,47.59359,-54.27349
2023-04-13 22:44:00+00:00,10.0,3.31,56.0,5.21,13.13,47.59359,-54.27349
2023-04-13 22:54:00+00:00,29.0,3.0,60.0,5.34,13.13,47.59359,-54.27349
2023-04-13 23:04:00+00:00,3.0,2.15,5.0,2.25,13.13,47.59359,-54.27349
2023-04-13 23:14:00+00:00,0.0,2.24,359.0,2.44,12.49,47.59359,-54.27349
2023-04-13 23:24:00+00:00,5.0,0.96,6.0,1.15,12.49,47.59359,-54.27349
2023-04-13 23:34:00+00:00,331.0,0.52,331.0,0.66,12.49,47.59359,-54.27349
2023-04-13 23:44:00+00:00,351.0,0.33,351.0,0.54,12.49,47.59359,-54.27349
2023-04-13 23:54:00+00:00,216.0,1.55,214.0,1.88,12.49,47.59359,-54.27349
